CZ-4 DEB, 35326

Orbit data source: Space-Track

CZ-4 DEB, 35326 is space debris in SSO originally from a launch on Thu, 14 Oct 1999 UTC launched from the Taiyaun Space Center, China (TSC). Debris objects in space refer to the collection of defunct objects orbiting the Earth. Examples of debris include non-operational satellites, rocket bodies, and fragments generated from explosions, collisions, or faulty payload assembly.

Loading next visibility...
Identifier
35326, 1999-057SE
Orbit
SSO
Country
Flag of CNCN / PRC
Related business
Manufacturer
Unknown
Mission
Spacecraft
Bus & Motor
Unknown
Mass
Unknown
Launch date (UTC)
1999-10-14 (26 years ago)
Launch vehicle
Unknown
Launch site
Taiyaun Space Center, China (TSC)
Object type
Payload
Rocket body
Debris
Shape & HBR
Unknown shape, 0.1 m
Radar Cross Section
Small (<0.1 m²)

Expand to show TLE details & history
Last TLE update: 3 days ago

TLE from 3 days ago
0 CZ-4 DEB
1 35326U 99057SE  25348.39615868 -.00000283  00000-0 -13118-3 0  9999
2 35326  98.4555 220.2122 0233011 116.9476 245.5698 14.00274867627904
Epoch: 2025-12-14T09:30Z
TLE epoch observation values (Epoch: 2025-12-14T09:30:28.109Z)
Latitude
-0.00007°
Longitude
-5.71459°
Altitude
969.052 km
Speed
7.33 km/s
True Right ascension
14h 40m 50s
True Declination
0° 00' 00"
Sunlit
Object was in daylight at epoch
Visualization orbit readout
Latitude
Unknown
Longitude
Unknown
Altitude
Unknown
Speed
Unknown
Apparent Right ascension
Unknown
Apparent Declination
Unknown
Sunlit
N/A
Visualization observer readout
Local Sidereal Time
13:19:35
Azimuth
Unknown
Elevation
Unknown
Doppler factor
Unknown
Orbital elements
Apogee altitude
1,059.37 km
Perigee altitude
720.658 km
Semi-major axis
7,268.151 km
Eccentricity
0.0233
Inclination
98.4555°
RAAN
220.2122°
Arg. of periapsis
116.9476°
True anomaly
243.16841°
Mean anomaly
245.5698°
Eccentric anomaly
244.36615°
Mean motion
3.50273 °/min
Orbital period
102.78 mins
BSTAR
-0.00013118
Loading maneuver chart data...
Computing Atmospheric mass density...
Loading historical data...
Loading historical data...
Loading historical data...
Loading historical data...
Loading historical data...
Loading historical data...
Loading historical data...

Documentation

Showing up to 5 results
|